Theta_e
286 285 284 283 282 282 281 281 280 280 280 280 280 279 279 279 279 279 279 279 279 279 279 279 278 278 279 278 278 278 278 277 277 277 277 277 276 276 276 276 276 276
285 285 284 283 282 282 280 281 280 280 280 279 279 279 279 279 279 279 279 279 279 279 278 278 278 278 278 277 277 277 277 277 277 278 277 276 276 276 276 276 275 275
284 283 283 281 281 280 280 280 280 279 279 278 278 279 279 279 279 279 279 279 278 278 278 278 278 277 277 277 277 278 277 277 276 276 276 276 276 275 275 275 275 275
283 282 282 281 281 280 280 280 279 279 278 278 278 279 280 280 279 279 278 279 278 278 278 277 277 277 277 277 277 277 276 276 276 276 276 275 275 275 275 275 275 275
282 281 281 281 280 280 280 280 279 279 278 279 279 279 279 279 278 278 278 278 278 277 277 277 277 276 276 276 276 276 276 275 275 276 275 275 274 275 275 275 274 273
282 281 281 280 280 280 280 280 279 279 279 278 279 279 279 278 278 278 278 277 277 277 277 276 276 276 276 276 276 276 275 275 275 275 275 274 274 274 274 274 273 273
281 281 280 280 280 280 280 280 279 279 279 279 279 278 278 278 278 278 277 277 277 277 276 276 276 275 275 275 275 275 275 275 274 274 274 274 275 274 273 273 273 273
281 281 281 280 280 280 279 279 279 279 278 278 278 278 278 278 278 277 277 277 276 276 276 276 275 275 275 275 275 275 274 274 274 274 274 273 274 273 273 273 273 272
281 281 280 280 280 279 279 279 278 278 278 278 278 277 277 277 277 277 277 277 276 276 277 276 276 275 276 276 275 275 274 274 275 275 274 274 273 273 273 272 271 271
281 281 280 280 279 279 279 278 278 278 278 278 278 277 277 277 277 277 277 277 277 276 276 276 276 276 275 276 275 275 275 274 274 274 274 274 274 273 272 272 271 271
281 280 280 280 279 279 278 278 279 279 279 278 278 277 278 278 277 277 277 277 277 276 276 276 276 275 275 275 275 275 275 275 274 274 274 274 273 273 274 272 271 271
281 280 280 280 280 279 279 279 279 279 279 278 278 278 278 278 277 277 277 277 277 276 276 276 276 275 275 275 274 275 275 275 274 274 274 273 273 273 273 271 271 271
281 281 281 280 280 280 280 280 279 279 279 278 278 278 277 277 277 277 277 277 277 276 276 276 275 275 275 275 274 274 274 274 274 274 273 273 273 272 272 271 271 271
282 281 281 281 281 280 280 280 279 279 279 278 278 278 278 278 277 277 277 277 276 276 276 275 275 275 275 274 274 274 274 274 274 274 273 273 272 272 272 271 271 271
282 282 282 281 281 280 280 279 279 279 279 278 278 278 278 278 278 277 277 276 276 275 275 275 275 275 274 274 274 274 274 274 274 273 273 273 272 272 271 271 271 271
282 282 282 281 281 280 280 280 279 279 279 278 278 278 278 277 277 277 276 276 275 275 275 275 275 275 276 278 277 275 274 274 274 274 273 273 273 272 271 271 271 271
282 282 282 281 281 280 280 280 279 279 279 278 278 277 277 277 276 276 276 276 275 275 274 274 274 274 278 280 280 279 275 274 274 273 273 273 273 272 271 272 272 272
282 282 281 281 281 280 280 280 279 279 278 278 277 277 277 276 276 276 276 275 275 275 274 274 274 277 280 281 282 281 278 274 274 273 273 273 272 272 272 271 271 271
282 282 281 281 281 280 280 280 279 279 278 277 277 277 276 275 276 276 275 275 275 274 274 274 274 278 281 282 283 283 282 277 274 274 273 273 272 272 271 271 270 270
282 282 281 281 281 281 280 279 279 278 278 278 278 277 276 276 276 276 276 275 275 274 274 274 274 278 281 283 283 284 284 280 273 273 273 272 272 271 271 270 270 269
282 282 281 281 281 281 280 279 279 278 278 278 277 277 276 276 276 276 275 275 275 275 274 274 274 278 281 283 284 284 284 283 274 273 272 272 271 271 271 270 270 270
282 282 282 282 281 280 280 279 279 279 278 278 277 277 277 277 276 276 276 275 275 274 274 274 274 279 281 283 284 284 285 283 275 274 272 271 270 271 271 271 270 270
283 282 282 281 281 280 279 279 279 278 278 278 277 277 277 276 276 276 276 275 275 274 274 274 274 278 281 282 283 285 284 282 277 275 274 272 272 272 272 271 271 270
283 282 282 281 281 280 280 280 280 279 279 279 278 277 277 277 276 276 275 275 275 274 274 274 275 277 281 282 283 284 284 281 278 275 274 274 273 274 273 272 272 273
282 282 282 282 281 281 281 280 280 280 279 279 278 278 277 276 275 275 275 275 275 275 276 275 276 277 280 282 283 284 283 281 278 276 275 274 273 273 273 273 272 273
283 283 283 282 282 281 281 281 280 279 278 277 277 277 276 276 276 275 275 275 275 274 275 275 275 275 277 281 282 283 284 281 278 276 275 274 273 273 272 272 272 271
Wind_Speed
9 9 10 10 9 9 10 10 7 8 7 6 7 7 7 6 5 5 5 5 5 7 6 6 5 5 4 4 4 6 7 8 7 6 7 8 7 8 8 6 5 5
9 9 8 7 7 6 7 7 8 8 8 7 6 6 5 6 5 5 6 6 5 6 5 6 5 5 5 4 4 7 7 7 8 3 7 8 6 7 7 6 6 5
10 9 9 10 10 10 9 8 7 7 7 6 5 6 6 5 6 5 5 6 7 6 6 5 5 4 4 4 4 6 7 8 8 5 6 7 5 7 6 6 5 5
9 10 10 9 9 11 9 9 7 6 6 7 7 6 6 6 6 7 5 6 7 6 6 6 6 5 5 5 6 6 7 7 6 6 7 5 4 6 6 5 5 5
12 9 7 8 7 8 9 10 10 9 8 7 6 6 7 7 7 7 6 5 6 6 6 7 6 6 6 6 6 8 6 7 5 5 6 5 3 5 4 6 6 6
8 8 9 8 8 10 10 10 10 9 9 8 8 6 6 7 7 7 6 6 4 6 6 6 7 6 6 6 6 7 7 7 5 6 6 6 4 3 4 5 6 6
11 9 9 8 9 9 10 9 8 7 7 6 6 6 6 7 7 8 7 6 5 5 6 7 7 7 6 7 8 8 7 8 7 6 7 5 5 5 3 4 5 6
11 9 9 8 9 9 8 8 7 8 7 7 7 5 6 7 8 7 7 6 6 5 5 4 5 7 7 7 9 11 9 6 7 8 7 6 5 5 4 4 5 6
10 10 9 10 11 9 8 7 7 6 6 7 7 6 5 6 8 8 8 7 6 5 5 5 5 6 6 8 10 11 10 8 7 9 9 9 7 7 6 5 5 5
11 9 11 10 10 8 8 7 6 6 6 7 6 7 8 6 7 8 8 7 7 6 6 6 7 6 6 6 8 9 9 9 9 8 8 8 8 8 7 7 7 6
11 10 10 10 9 8 8 7 7 8 7 8 7 7 7 7 7 6 7 7 8 8 8 8 7 7 7 7 6 6 8 8 9 8 8 8 8 7 7 7 7 7
11 10 11 11 10 9 9 9 8 8 8 6 7 8 7 7 8 7 8 8 7 7 7 6 6 6 6 7 8 7 6 6 6 7 7 7 7 6 6 6 7 6
11 11 10 10 9 9 8 8 8 8 8 8 7 8 8 9 8 8 6 7 6 6 7 6 7 6 6 7 7 7 8 8 7 6 6 6 6 6 5 5 5 5
11 10 10 10 9 9 9 8 8 8 8 7 7 8 8 8 9 8 6 5 5 6 5 5 6 6 6 6 8 9 9 8 8 8 8 6 5 5 5 5 5 5
10 9 9 10 10 10 10 10 9 8 8 7 7 7 6 6 6 6 6 6 5 6 6 6 6 6 6 8 9 7 8 9 8 8 8 8 6 5 4 4 4 4
11 10 11 10 11 11 11 10 10 9 9 9 8 7 6 6 7 7 7 7 7 6 6 6 5 4 6 11 9 10 9 7 6 6 7 7 7 6 5 5 5 5
11 11 11 12 12 10 9 11 11 10 9 8 8 7 8 8 8 9 8 7 8 7 8 6 5 5 11 13 13 13 9 8 7 6 6 7 6 6 7 6 5 5
11 11 11 12 11 11 11 10 10 10 10 10 9 9 8 6 8 8 8 7 7 7 7 7 6 8 14 14 14 14 12 8 5 5 5 7 7 6 5 5 5 5
11 12 12 11 10 10 10 10 11 10 10 11 12 9 7 9 10 9 9 8 8 9 8 8 7 11 14 14 15 15 15 10 5 5 6 6 7 7 6 5 5 5
10 10 10 10 9 10 10 11 11 12 11 9 8 8 9 9 8 9 8 9 9 10 9 8 8 10 15 15 15 16 15 12 5 6 5 5 7 7 6 6 6 6
11 11 10 10 11 11 11 11 11 9 10 9 9 10 11 12 11 11 10 10 9 9 8 8 7 13 15 16 16 16 16 11 6 6 5 5 7 6 6 6 5 6
13 12 12 12 11 11 11 12 11 11 11 9 8 7 6 5 6 7 10 10 10 9 8 9 7 15 15 15 16 16 16 8 6 8 7 7 7 7 7 6 6 7
11 11 11 10 11 11 11 11 11 10 9 7 8 8 9 10 10 11 9 9 10 10 10 9 8 12 16 16 16 17 13 7 7 7 7 8 8 8 7 6 7 7
11 10 11 10 10 11 11 9 8 7 9 8 10 11 11 12 9 7 7 8 10 11 12 10 9 12 18 18 18 18 14 9 7 7 8 8 8 7 6 7 8 13
9 9 10 11 11 11 11 11 11 11 9 8 8 7 8 6 7 8 8 7 9 10 8 11 10 11 18 19 20 19 15 9 7 7 9 9 8 8 7 7 7 10
10 11 11 12 12 11 9 10 8 7 8 8 8 7 7 6 7 7 8 8 7 9 9 10 9 7 9 18 17 17 18 10 7 8 11 11 9 9 8 7 8 8
Wind_Direction
163 166 165 165 164 162 159 159 166 163 162 164 163 160 157 144 145 141 133 126 128 122 120 116 111 111 108 108 110 107 104 105 102 108 109 112 110 115 113 112 101 110
170 165 163 155 147 149 153 154 162 166 163 164 154 142 137 142 149 140 140 133 121 117 114 114 112 118 126 126 130 116 109 109 104 100 110 105 111 109 113 118 117 119
163 163 164 167 165 162 160 156 158 163 160 157 138 147 148 151 143 136 138 134 126 123 123 121 124 128 134 134 132 117 118 115 109 104 102 109 116 115 120 121 115 117
170 171 169 169 164 160 157 154 160 156 147 151 165 160 155 150 139 138 135 131 130 131 131 133 137 140 143 141 127 110 110 101 111 112 105 97 105 119 123 117 113 103
171 168 169 162 158 157 157 162 167 166 166 159 144 154 155 149 142 140 135 132 135 137 142 145 145 150 150 139 130 116 109 110 108 109 108 108 111 116 125 120 120 114
169 167 162 162 163 162 169 174 171 164 159 158 166 157 158 148 143 139 137 139 145 148 151 153 154 155 149 135 123 117 122 118 120 115 114 121 124 110 127 129 126 127
168 166 167 163 164 174 174 173 165 160 161 153 139 166 155 150 145 140 139 144 151 164 170 168 161 155 153 140 127 127 120 126 128 126 126 130 126 123 136 134 133 132
172 167 164 165 169 172 176 170 163 162 153 141 162 155 157 152 144 140 141 149 160 172 182 176 171 160 152 141 138 127 123 136 139 137 137 143 145 152 155 147 141 138
167 170 165 169 170 174 174 166 160 148 143 152 156 155 154 155 148 145 148 152 161 175 181 181 180 166 160 147 143 141 143 149 154 151 151 156 162 168 163 150 143 150
174 168 168 171 174 172 169 162 154 146 143 152 157 157 159 151 144 146 150 159 166 180 187 184 182 172 158 158 146 145 143 142 139 139 139 165 167 167 162 162 161 159
173 170 172 173 171 165 167 156 155 151 155 161 156 162 162 149 143 145 156 166 178 187 188 189 183 165 155 148 148 144 143 151 151 148 152 157 173 167 166 166 171 178
175 172 176 172 167 164 166 163 160 159 158 158 163 163 160 159 154 162 172 176 183 188 189 182 170 171 171 161 140 139 139 139 154 150 145 164 169 171 169 178 177 182
177 176 172 168 166 164 161 163 164 159 161 166 168 168 167 165 164 165 174 178 184 179 187 181 177 177 170 162 150 132 119 137 145 157 170 170 174 174 177 180 182 183
176 168 168 167 164 160 164 165 161 161 165 161 161 171 175 171 168 171 170 171 180 181 183 174 180 176 173 161 132 131 130 142 152 168 166 173 170 178 180 186 188 193
165 164 166 165 166 163 165 166 164 160 157 158 171 175 173 166 156 157 158 167 175 183 179 182 187 187 178 164 153 142 136 144 167 175 170 163 164 182 190 190 198 199
167 167 168 167 167 172 171 163 161 160 161 165 174 171 161 160 156 158 170 177 178 184 184 189 194 187 184 172 163 155 155 158 175 193 184 160 167 188 200 204 206 204
169 173 168 172 175 168 163 164 164 164 164 164 165 168 169 167 167 171 176 179 184 185 188 193 192 184 185 179 173 174 171 175 190 192 176 167 190 195 206 205 209 210
175 170 171 175 170 170 167 166 162 162 167 169 167 169 176 166 172 181 180 183 184 189 194 194 194 193 191 187 184 185 182 185 190 191 187 188 187 204 211 202 209 214
172 172 175 173 172 167 166 165 167 168 168 171 179 176 159 172 186 180 187 184 187 191 198 198 198 195 194 191 192 194 191 182 192 193 192 206 182 211 211 207 202 217
169 170 173 171 167 167 166 170 172 180 177 172 163 160 176 182 184 188 185 189 192 196 200 198 196 196 196 195 198 200 197 187 187 195 192 181 200 210 209 206 205 211
168 170 171 171 175 173 170 172 174 172 175 175 172 179 182 187 187 188 194 193 196 198 199 198 199 197 198 198 202 203 204 193 171 174 199 213 209 212 210 203 207 212
173 174 175 175 172 171 173 176 177 178 177 174 176 182 186 183 200 197 197 196 196 194 196 204 202 197 200 201 204 206 205 197 170 195 209 212 217 213 209 203 202 212
175 174 174 170 172 174 178 177 176 178 176 167 178 186 188 195 199 201 198 193 194 195 199 208 201 198 200 204 206 207 204 204 190 201 211 214 222 212 208 204 202 207
175 173 172 172 171 178 179 181 177 179 183 176 185 188 198 203 200 199 200 198 196 200 203 203 204 200 202 205 207 206 205 206 199 200 217 219 225 218 206 209 210 215
164 166 170 172 178 183 180 182 186 188 184 180 195 196 204 185 189 199 203 204 206 208 198 204 213 205 205 207 206 206 205 204 196 204 221 227 221 228 215 210 216 220
170 173 177 179 183 182 182 188 178 167 171 179 188 193 193 188 192 200 207 213 206 209 214 215 219 218 211 214 211 208 208 202 198 203 224 227 222 225 225 226 218 216